User: anonymous   Login
Location: St. Louis
(38.6270°N, 90.1994°W)
Time: 22:34:00
(UTC-06:00)
Language:

DOVE 4 - Orbit

View from above orbital plane
View from above orbital plane
View from above satellite
View from above satellite

Ground track
Ground track

The orbit data is extracted from the following two-line orbital elements,

1 39430U 13066Q   22026.79377892  .00000431  00000-0  85608-4 0  9998
2 39430  97.8157 302.0628 0151025 130.9720 230.4676 14.59820644435626
Epoch (UTC): 26 January 2022 19:03:02
Eccentricity: 0.0151025
inclination: 97.8157°
perigee height: 587 km
apogee height: 800 km
right ascension of ascending node: 302.0628°
argument of perigee: 130.9720°
revolutions per day: 14.59820644
mean anomaly at epoch: 230.4676°
orbit number at epoch: 43562

The dashed part of the orbit path shows where the satellite is in the earth's shadow,  

DLR